Terug naar catalogus

PEGASUS DEB

ActiefPO
NORAD 24985·DEBRIS·🇺🇸 United States

Gelanceerd May 19, 1994 vanaf Vandenberg Space Force Base

Loading…

Volgende Passages (komende 24 uur)

TLE

VersSource: Space-Track

Epoch: Sep 14, 2026, 05:41 UTC

1 24985U 94029ACT 26257.23711925  .00001301  00000-0  38545-3 0  9997
2 24985  81.5080  86.7197 0600589  48.3425 316.7560 13.71079077611383

Volg PEGASUS DEB in realtime met AllMySat

Download on the App Store